Date String (YYYY-MM-DD hh:mm:ss) UTC,Instrument flags,Ambient pressure (hPa),Sample flow (lpm),Bypass flow (lpm),Sample temperature (°C),Ambient temperature (°C),ASC tube jacket temperature (°C),LED temperature (°C),Box temperature (°C),Sample RH (%),Span deviation,Mass concentration (μg/m³),Mass concentration (μg/m³),Mass concentration (μg/m³)
DateTimeUTC,F1_M11,P_M11,Q1_M11,Q2_M11,T1_M11,T2_M11,T3_M11,T4_M11,T5_M11,U1_M11,ZSPAN_M11,X0_M11,X2_M11,X1_M11
2022-06-17 08:00:00,,0829.8,5.00,0.00,29.5,28.5,00.0,38.3,31.5,33.7,0000.2,0016.56,0006.99,0004.38
2022-06-17 08:01:00,,0829.8,5.01,0.00,29.6,28.6,00.0,38.3,31.5,33.7,0001.2,0016.24,0007.01,0004.39
2022-06-17 08:02:00,,0829.8,5.00,0.00,29.6,28.7,00.0,38.3,31.6,34.0,0000.5,0016.18,0007.04,0004.42
2022-06-17 08:03:00,,0829.8,4.98,0.00,29.6,28.7,00.0,38.4,31.6,34.0,0000.0,0016.11,0007.04,0004.44
2022-06-17 08:04:00,,0829.8,5.01,0.00,29.6,28.2,00.0,38.3,31.5,34.0,0000.0,0016.19,0007.11,0004.47
2022-06-17 08:05:00,,0829.8,4.99,0.00,29.5,27.3,00.0,38.2,31.2,34.1,0000.0,0016.41,0007.16,0004.48
2022-06-17 08:06:00,,0829.8,5.00,0.00,29.4,26.8,00.0,38.2,31.1,34.2,0000.0,0016.12,0007.24,0004.49
2022-06-17 08:07:00,,0829.7,5.00,0.00,29.3,26.8,00.0,38.2,31.0,34.3,0000.8,0016.38,0007.34,0004.52
2022-06-17 08:08:00,,0829.7,4.99,0.00,29.3,26.9,00.0,38.1,31.0,34.5,0000.0,0015.99,0007.34,0004.52
2022-06-17 08:09:00,,0829.6,4.99,0.00,29.2,27.0,00.0,38.1,31.0,34.7,0000.0,0016.08,0007.35,0004.51
2022-06-17 08:10:00,,0829.7,5.02,0.00,29.2,27.2,00.0,38.1,31.0,34.7,0000.0,0015.85,0007.30,0004.51
2022-06-17 08:11:00,,0829.7,5.00,0.00,29.2,27.4,00.0,38.1,31.0,34.8,0000.0,0015.84,0007.30,0004.53
2022-06-17 08:12:00,,0829.7,5.00,0.00,29.2,27.6,00.0,38.1,31.1,34.8,0000.0,0016.30,0007.35,0004.55
2022-06-17 08:13:00,,0829.7,4.99,0.00,29.2,27.7,00.0,38.1,31.1,34.7,0000.0,0017.12,0007.40,0004.56
2022-06-17 08:14:00,,0829.7,5.00,0.00,29.3,27.9,00.0,38.1,31.2,34.7,0000.0,0017.20,0007.41,0004.58
2022-06-17 08:15:00,,0829.6,5.00,0.00,29.3,28.0,00.0,38.1,31.2,34.7,0000.0,0018.23,0007.43,0004.57
2022-06-17 08:16:00,,0829.6,5.00,0.00,29.3,28.1,00.0,38.1,31.2,34.6,0000.0,0018.51,0007.50,0004.59
2022-06-17 08:17:00,,0829.6,5.01,0.00,29.3,28.2,00.0,38.1,31.3,34.5,0000.0,0018.26,0007.42,0004.58
2022-06-17 08:18:00,,0829.9,4.99,0.00,29.3,28.3,00.0,38.1,31.3,34.4,0000.0,0018.14,0007.39,0004.58
2022-06-17 08:19:00,,0829.7,5.01,0.00,29.4,28.4,00.0,38.2,31.4,34.3,0000.0,0018.72,0007.41,0004.60
2022-06-17 08:20:00,,0829.7,5.00,0.00,29.4,28.5,00.0,38.2,31.4,34.3,0000.0,0018.71,0007.44,0004.61
2022-06-17 08:21:00,,0829.6,4.98,0.00,29.4,28.6,00.0,38.2,31.4,34.3,0000.0,0018.93,0007.46,0004.61
2022-06-17 08:22:00,,0829.6,5.00,0.00,29.5,28.6,00.0,38.2,31.5,34.4,0000.0,0018.94,0007.44,0004.60
2022-06-17 08:23:00,,0829.6,4.99,0.00,29.5,28.7,00.0,38.3,31.5,34.4,0000.0,0018.58,0007.40,0004.59
2022-06-17 08:24:00,,0829.6,5.00,0.00,29.5,28.7,00.0,38.3,31.5,34.3,0000.0,0017.96,0007.35,0004.59
2022-06-17 08:25:00,,0829.7,5.01,0.00,29.6,28.7,00.0,38.3,31.6,34.3,0000.0,0017.94,0007.33,0004.58
2022-06-17 08:26:00,,0829.9,5.01,0.00,29.6,28.1,00.0,38.2,31.4,34.2,0000.0,0017.30,0007.29,0004.59
2022-06-17 08:27:00,,0829.7,4.99,0.00,29.5,27.2,00.0,38.2,31.2,34.4,0000.0,0017.14,0007.25,0004.60
2022-06-17 08:28:00,,0829.6,5.01,0.00,29.4,26.9,00.0,38.1,31.1,34.6,0000.0,0017.37,0007.27,0004.60
2022-06-17 08:29:00,,0829.6,4.99,0.00,29.3,26.8,00.0,38.1,31.0,34.8,0000.0,0017.47,0007.21,0004.59
2022-06-17 08:30:00,,0829.6,5.00,0.00,29.2,26.9,00.0,38.1,31.0,35.0,0000.0,0017.05,0007.18,0004.58
2022-06-17 08:31:00,,0829.5,5.02,0.00,29.3,27.1,00.0,38.1,31.0,35.1,0000.0,0017.62,0007.22,0004.57
2022-06-17 08:32:00,,0829.5,4.98,0.00,29.5,27.3,00.0,38.1,31.2,34.7,0000.0,0018.05,0007.29,0004.56
2022-06-17 08:33:00,,0829.6,5.01,0.00,29.6,27.5,00.0,38.1,31.2,34.5,0000.0,0019.10,0007.40,0004.56
2022-06-17 08:34:00,,0829.5,5.00,0.00,29.7,27.6,00.0,38.1,31.2,34.4,0000.0,0019.02,0007.38,0004.55
2022-06-17 08:35:00,,0829.6,5.00,0.00,29.7,27.8,00.0,38.1,31.3,34.4,0000.0,0019.18,0007.44,0004.53
2022-06-17 08:36:00,,0829.6,5.00,0.00,29.8,27.9,00.0,38.2,31.3,34.4,0000.0,0020.10,0007.47,0004.51
2022-06-17 08:37:00,,0829.6,5.00,0.00,29.8,28.1,00.0,38.2,31.3,34.5,0000.0,0020.24,0007.52,0004.51
2022-06-17 08:38:00,,0829.6,5.01,0.00,29.8,28.2,00.0,38.3,31.4,34.6,0000.0,0020.39,0007.60,0004.51
2022-06-17 08:39:00,,0829.6,4.99,0.00,29.8,28.3,00.0,38.3,31.4,34.6,0000.0,0020.46,0007.74,0004.52
2022-06-17 08:40:00,,0829.6,4.99,0.00,29.8,28.4,00.0,38.3,31.4,34.6,0000.0,0020.36,0007.85,0004.53
2022-06-17 08:41:00,,0829.5,5.01,0.00,29.9,28.5,00.0,38.4,31.5,34.7,0000.0,0020.88,0007.93,0004.54
2022-06-17 08:42:00,,0829.6,5.00,0.00,29.9,28.6,00.0,38.4,31.5,34.7,0000.0,0021.18,0007.99,0004.56
2022-06-17 08:43:00,,0829.6,5.01,0.00,29.9,28.6,00.0,38.4,31.6,34.8,0000.0,0021.34,0007.97,0004.58
2022-06-17 08:44:00,,0829.6,5.00,0.00,29.9,28.7,00.0,38.5,31.6,34.8,0000.0,0020.33,0007.93,0004.59
2022-06-17 08:45:00,,0829.5,5.00,0.00,30.0,28.7,00.0,38.5,31.7,34.8,0000.0,0020.80,0008.01,0004.60
2022-06-17 08:46:00,,0829.5,5.01,0.00,30.0,28.8,00.0,38.5,31.7,34.8,0000.0,0020.63,0007.93,0004.62
2022-06-17 08:47:00,,0829.5,5.00,0.00,30.0,28.9,00.0,38.6,31.7,34.8,0000.0,0020.51,0007.94,0004.64
2022-06-17 08:48:00,,0829.5,5.01,0.00,30.0,28.5,00.0,38.5,31.6,34.8,0000.0,0020.75,0007.91,0004.64
2022-06-17 08:49:00,,0829.5,4.99,0.00,29.9,27.8,00.0,38.5,31.5,34.9,0000.0,0020.86,0007.83,0004.63
2022-06-17 08:50:00,,0829.5,4.99,0.00,29.9,27.5,00.0,38.5,31.4,35.0,0000.0,0021.37,0007.71,0004.62
2022-06-17 08:51:00,,0829.5,5.02,0.00,29.9,27.5,00.0,38.5,31.4,35.1,0000.0,0022.14,0007.63,0004.60
2022-06-17 08:52:00,,0829.5,4.99,0.00,30.0,27.6,00.0,38.5,31.5,34.6,0000.0,0021.64,0007.52,0004.58
2022-06-17 08:53:00,,0829.5,5.01,0.00,30.1,27.7,00.0,38.5,31.5,34.2,0000.0,0020.84,0007.38,0004.56
2022-06-17 08:54:00,,0829.6,5.01,0.00,30.2,27.8,00.0,38.5,31.5,34.0,0000.0,0020.06,0007.33,0004.57
2022-06-17 08:55:00,,0829.5,4.99,0.00,30.2,28.0,00.0,38.5,31.5,33.9,0000.0,0020.15,0007.37,0004.57
2022-06-17 08:56:00,,0829.5,5.00,0.00,30.2,28.1,00.0,38.6,31.6,33.7,0000.0,0019.64,0007.27,0004.56
2022-06-17 08:57:00,,0829.5,5.01,0.00,30.2,28.2,00.0,38.6,31.6,33.5,0000.0,0019.82,0007.20,0004.55
2022-06-17 08:58:00,,0829.5,4.99,0.00,30.2,28.4,00.0,38.6,31.6,33.4,0000.0,0020.06,0007.20,0004.56
2022-06-17 08:59:00,,0829.5,5.00,0.00,30.3,28.4,00.0,38.7,31.7,33.4,0000.0,0019.52,0007.20,0004.53
